Vorticity
13 11 12 11 8 6 5 4 4 3 8 2 4 -1 8 14 16 13 -0 -1 1 1 -0 2 6 2 12 3 -0 3 4 7 5 3 2 3 7 7 4 4 6 9 5 8
10 11 10 6 4 3 4 4 5 3 14 23 6 15 25 10 30 31 41 35 30 19 5 1 6 1 16 8 4 5 5 5 4 3 2 3 2 -1 3 3 7 7 4 2
12 7 6 3 4 3 4 9 16 16 3 2 29 32 47 61 30 38 58 55 59 54 44 47 33 5 -1 5 11 9 8 5 4 3 3 2 5 3 7 4 2 9 3 5
7 5 4 3 5 5 19 24 15 21 28 23 35 35 28 33 8 14 9 6 17 27 45 53 47 48 28 37 39 14 9 7 6 4 5 5 32 -6 5 6 1 4 7 6
5 5 4 6 8 22 17 16 16 18 18 34 13 28 7 10 1 10 19 13 32 17 22 16 29 57 48 51 18 13 11 7 6 7 -8 6 114 -23 8 4 4 -0 4 10
5 5 6 10 26 15 21 2 14 11 35 21 5 13 -4 -3 8 11 22 8 28 21 25 25 26 34 44 37 27 12 9 9 8 9 14 -6 59 12 2 5 2 -6 1 8
4 6 12 19 12 13 7 9 14 36 20 -8 -14 16 -0 16 6 1 30 49 4 20 25 33 39 31 29 28 28 27 22 21 15 17 9 -14 14 -6 0 1 3 10 7 8
6 11 15 19 1 7 4 3 21 20 2 16 -14 16 8 24 6 -4 14 24 29 5 27 11 9 15 36 30 20 21 21 18 15 5 5 2 1 -3 5 7 7 4 13 29
9 18 16 15 5 1 10 13 11 22 -5 7 12 1 8 13 17 -2 15 16 47 1 -24 23 12 15 16 31 9 36 -17 41 -19 9 9 8 9 11 12 -7 -2 -6 13 32
9 17 13 12 6 4 12 6 12 14 1 4 -2 11 -2 9 14 10 2 22 29 23 -9 25 8 10 15 13 28 36 12 -4 33 -13 12 5 5 10 6 -1 5 18 3 -5
12 20 11 15 6 19 9 19 23 9 6 3 1 6 4 6 12 7 -3 15 11 36 16 -9 18 9 8 11 15 15 19 6 2 14 20 -2 26 10 -6 10 -20 16 14 -10
16 13 14 9 2 14 10 16 8 7 14 6 19 -5 19 12 4 18 18 20 21 4 27 45 -21 17 39 1 12 19 24 20 21 26 31 4 32 55 4 14 29 38 36 30
12 14 15 7 -0 12 22 8 20 12 4 9 2 8 24 12 8 -2 5 8 15 21 22 26 66 -15 -3 11 16 20 17 13 13 2 8 23 29 25 7 14 19 10 4 9
15 5 16 9 10 9 33 19 15 6 6 5 0 18 29 6 0 12 14 3 7 7 12 12 8 -1 38 6 -3 -18 12 13 -6 -7 12 38 -12 11 16 25 22 23 15 29
14 6 17 16 13 14 16 18 13 8 -0 15 8 28 21 10 13 4 1 9 17 10 6 8 22 20 39 34 86 15 -16 -15 19 14 32 30 25 6 0 -2 9 16 7 6
12 5 11 11 14 15 20 17 16 8 32 14 8 24 18 10 2 -4 10 9 3 3 2 19 13 11 31 29 -7 34 17 10 11 17 -5 5 10 9 11 14 12 11 2 8
9 9 13 8 -10 -8 18 13 3 10 2 4 10 11 2 12 8 5 2 1 -0 4 7 11 6 8 9 12 21 14 23 7 14 16 16 11 13 17 16 18 13 10 14 11
3 9 19 2 -8 12 15 14 14 3 -3 -7 8 4 0 7 6 3 5 5 9 11 10 8 5 8 7 8 5 6 6 9 10 8 5 0 10 8 8 14 19 22 19 11
19 6 7 10 2 3 5 -3 13 9 8 11 8 11 9 10 9 6 1 5 4 4 0 1 1 2 4 4 8 9 11 9 10 14 13 12 13 12 14 12 16 16 23 23
15 12 7 9 14 13 7 13 13 5 8 12 9 5 7 10 9 10 10 12 13 12 11 13 14 13 12 13 10 9 14 11 8 6 4 6 6 8 6 8 8 8 8 11
16 13 12 8 7 10 10 7 7 15 14 7 15 8 7 8 8 7 6 8 10 10 8 7 5 6 6 6 7 7 6 6 5 6 7 5 4 4 4 4 3 3 3 2
13 14 16 20 9 3 11 14 14 11 10 11 7 9 10 10 9 9 8 7 5 5 10 13 15 15 14 13 13 12 11 10 11 10 9 8 8 8 7 7 6 5 6 6
19 10 13 15 8 10 4 1 13 9 8 9 8 8 6 5 5 7 11 14 13 8 4 3 4 3 2 3 4 3 3 3 3 1 2 2 2 3 3 4 5 7 6 5
11 17 8 12 26 10 15 10 9 18 3 5 5 6 7 11 11 10 8 5 1 4 2 2 4 4 4 5 4 5 5 5 2 5 7 7 7 10 10 8 8 8 9 10
13 8 6 6 19 17 12 13 10 10 10 9 10 10 9 11 9 5 3 3 1 1 1 4 7 8 8 8 7 9 12 15 16 18 19 18 18 17 16 12 15 17 16 14
14 14 5 7 13 22 19 20 20 18 16 13 12 12 11 9 7 4 4 1 -1 2 5 10 14 17 19 23 25 22 16 9 4 4 6 9 5 6 9 9 7 2 0 3
Height
5717 5715 5713 5711 5709 5707 5705 5702 5699 5693 5680 5684 5677 5683 5682 5664 5655 5650 5656 5660 5660 5665 5666 5669 5678 5685 5697 5700 5708 5714 5720 5729 5734 5736 5741 5746 5753 5761 5764 5766 5768 5770 5772 5774
5709 5706 5705 5702 5699 5697 5692 5689 5688 5685 5666 5661 5656 5658 5652 5649 5626 5626 5629 5628 5629 5634 5636 5638 5644 5660 5675 5680 5687 5696 5704 5711 5719 5725 5733 5738 5744 5750 5755 5756 5759 5762 5765 5768
5699 5698 5695 5693 5688 5685 5681 5676 5672 5672 5658 5647 5636 5639 5625 5626 5612 5610 5607 5602 5598 5599 5601 5605 5612 5625 5639 5655 5667 5676 5685 5694 5703 5712 5720 5725 5730 5737 5744 5747 5752 5758 5760 5761
5690 5688 5686 5683 5677 5673 5669 5665 5659 5653 5647 5641 5622 5624 5615 5616 5611 5604 5600 5594 5588 5584 5580 5579 5582 5594 5608 5624 5641 5655 5667 5678 5688 5698 5704 5709 5716 5727 5735 5739 5742 5746 5748 5749
5682 5679 5677 5674 5668 5663 5659 5655 5650 5643 5637 5630 5622 5620 5617 5610 5608 5601 5592 5585 5580 5575 5570 5566 5564 5569 5581 5596 5614 5632 5647 5662 5674 5683 5691 5695 5685 5708 5722 5728 5732 5735 5739 5739
5673 5671 5668 5664 5659 5655 5653 5648 5643 5636 5630 5627 5623 5617 5611 5607 5601 5596 5587 5579 5574 5568 5563 5558 5556 5557 5566 5578 5593 5611 5628 5647 5660 5671 5680 5684 5665 5700 5712 5717 5721 5724 5728 5730
5665 5661 5658 5655 5652 5651 5647 5642 5636 5631 5627 5625 5620 5615 5610 5602 5596 5588 5580 5573 5568 5565 5559 5555 5554 5555 5563 5574 5587 5601 5615 5631 5647 5661 5670 5674 5683 5693 5701 5705 5708 5712 5716 5723
5658 5655 5651 5649 5648 5647 5642 5638 5634 5628 5627 5624 5619 5615 5608 5599 5592 5585 5576 5569 5564 5563 5558 5556 5557 5560 5566 5574 5586 5597 5610 5622 5638 5650 5661 5668 5676 5682 5688 5692 5696 5700 5705 5710
5650 5647 5644 5642 5642 5641 5637 5633 5629 5626 5625 5621 5617 5613 5607 5599 5593 5585 5577 5568 5563 5560 5560 5562 5562 5565 5570 5578 5588 5598 5606 5612 5629 5643 5651 5660 5666 5671 5676 5679 5684 5689 5695 5696
5644 5643 5639 5637 5637 5635 5631 5628 5625 5623 5622 5619 5615 5611 5605 5599 5593 5586 5580 5573 5566 5562 5563 5566 5568 5570 5574 5581 5589 5600 5610 5611 5618 5626 5640 5649 5655 5660 5665 5669 5674 5679 5683 5684
5637 5637 5634 5633 5632 5628 5626 5623 5621 5619 5619 5616 5614 5609 5604 5597 5593 5587 5582 5576 5572 5568 5568 5569 5572 5574 5576 5582 5589 5597 5606 5612 5617 5623 5630 5638 5646 5648 5655 5659 5662 5665 5668 5672
5631 5630 5629 5628 5625 5623 5620 5618 5617 5615 5616 5615 5611 5607 5603 5597 5593 5589 5583 5578 5573 5571 5570 5570 5573 5575 5578 5584 5590 5596 5602 5610 5616 5620 5624 5630 5635 5637 5642 5646 5648 5651 5654 5655
5624 5624 5624 5623 5622 5618 5615 5614 5613 5612 5612 5612 5609 5605 5600 5596 5594 5590 5585 5581 5577 5574 5573 5572 5572 5577 5580 5584 5589 5594 5600 5604 5608 5613 5618 5623 5625 5625 5631 5634 5637 5640 5642 5644
5619 5619 5618 5618 5616 5612 5609 5609 5609 5608 5608 5607 5605 5601 5598 5596 5594 5591 5587 5584 5580 5577 5576 5574 5573 5576 5577 5581 5586 5591 5596 5600 5604 5601 5608 5610 5615 5616 5620 5625 5626 5629 5631 5632
5614 5614 5614 5613 5610 5607 5605 5604 5605 5604 5604 5603 5600 5599 5598 5597 5595 5592 5590 5586 5583 5581 5579 5578 5577 5578 5579 5579 5578 5583 5590 5594 5598 5597 5602 5606 5608 5611 5614 5616 5618 5620 5622 5625
5609 5609 5608 5608 5605 5602 5602 5601 5602 5601 5600 5598 5598 5598 5598 5596 5595 5593 5591 5589 5586 5585 5583 5581 5580 5580 5579 5579 5580 5583 5582 5586 5590 5593 5597 5600 5603 5605 5606 5608 5609 5611 5614 5616
5605 5605 5605 5605 5602 5599 5600 5599 5599 5599 5599 5599 5599 5598 5597 5596 5595 5594 5592 5591 5589 5587 5585 5584 5583 5581 5579 5579 5579 5580 5581 5585 5587 5589 5592 5595 5597 5598 5599 5600 5601 5602 5603 5604
5600 5600 5601 5601 5600 5600 5599 5597 5598 5597 5598 5599 5598 5598 5597 5596 5595 5594 5593 5592 5590 5589 5588 5586 5584 5583 5582 5582 5581 5581 5582 5583 5586 5589 5589 5589 5591 5590 5591 5591 5591 5592 5593 5593
5594 5595 5596 5597 5596 5597 5596 5597 5597 5595 5596 5596 5596 5596 5596 5595 5594 5593 5593 5592 5591 5589 5588 5586 5585 5584 5583 5583 5582 5582 5583 5584 5585 5585 5587 5588 5588 5587 5587 5587 5586 5585 5584 5584
5588 5589 5591 5591 5592 5592 5593 5593 5593 5593 5593 5593 5593 5592 5593 5593 5592 5592 5591 5591 5590 5589 5588 5587 5585 5583 5582 5582 5582 5582 5583 5583 5584 5584 5584 5583 5583 5582 5581 5580 5580 5579 5578 5577
5583 5584 5585 5585 5586 5587 5588 5589 5589 5590 5593 5590 5590 5589 5590 5591 5591 5590 5590 5589 5590 5589 5588 5587 5585 5584 5583 5583 5582 5582 5581 5581 5580 5580 5580 5579 5578 5576 5575 5574 5573 5572 5571 5569
5579 5579 5579 5579 5580 5583 5583 5584 5585 5586 5585 5586 5586 5587 5588 5588 5588 5588 5588 5588 5587 5587 5586 5585 5584 5583 5582 5582 5581 5580 5579 5577 5577 5576 5573 5573 5572 5571 5568 5566 5564 5562 5560 5559
5573 5574 5574 5575 5576 5576 5578 5579 5580 5580 5582 5583 5583 5584 5584 5585 5585 5585 5586 5586 5586 5586 5585 5584 5583 5582 5582 5580 5578 5577 5576 5575 5573 5572 5570 5567 5565 5563 5560 5557 5554 5551 5550 5547
5568 5568 5569 5569 5570 5570 5572 5574 5575 5575 5577 5579 5580 5580 5581 5581 5582 5582 5583 5583 5584 5583 5582 5581 5580 5579 5577 5575 5573 5571 5569 5566 5563 5563 5560 5557 5554 5551 5548 5545 5542 5539 5536 5533
5563 5564 5564 5565 5565 5565 5567 5568 5570 5571 5572 5574 5575 5576 5577 5578 5578 5579 5580 5580 5579 5579 5578 5577 5574 5572 5570 5567 5565 5563 5560 5558 5555 5553 5549 5546 5543 5540 5537 5534 5529 5526 5523 5519
5558 5558 5559 5560 5562 5562 5562 5563 5565 5566 5568 5569 5571 5572 5573 5574 5575 5576 5576 5575 5574 5573 5572 5570 5568 5565 5563 5560 5558 5555 5553 5550 5548 5545 5542 5538 5534 5530 5526 5522 5518 5514 5509 5504